Regional Weather Roundup
Issued by NWS

Home | Current Version | Previous Version | Text Only | Print | Product List | Glossary On
Versions: 1 2 3 4 5 6 7 8 9 10 11 12 13 14 15 16 17 18 19 20 21 22 23 24 25 26 27 28 29 30 31 32 33 34 35 36 37 38 39 40 41 42 43 44 45 46 47 48 49 50
000
ASPQ40 PGUM 291012
RWRPQ
WEATHER ROUNDUP FOR THE MARIANAS AND MICRONESIA
NATIONAL WEATHER SERVICE TIYAN GU
800 PM CHST FRI AUG 29 2014

GUZ001>004-291100-
MARIANA ISLANDS-

CITY           SKY/WX    TMP DP  RH WIND       PRES   REMARKS
GUAM AIRPORT   PTCLDY    82  79  89 E7        29.81R HX  93
ANDERSEN AFB   PTCLDY    81  77  89 E9        29.82R
ROTA AIRPORT   MOCLDY    81  77  89 E7        29.82R
TINIAN AP      PTCLDY    81  77  89 NE6       29.80R
SAIPAN AP      PTCLDY    82  79  89 E12       29.82R HX  93

$$

PMZ161-291100-
REPUBLIC OF PALAU-

CITY           SKY/WX    TMP DP  RH WIND       PRES   REMARKS
KOROR AP       MOCLDY    82  77  83 W5        29.83R HX  91
KOROR WSO      MOCLDY    82  75  78 NW7       29.82R

$$

PMZ171>174-291100-
FEDERATED STATES OF MICRONESIA-

CITY           SKY/WX    TMP DP  RH WIND       PRES   REMARKS
YAP AIRPORT    PTCLDY    82  77  83 VRB5      29.81R HX  91
CHUUK AP       CLOUDY    79  77  94 CALM      29.78R
POHNPEI AP     NOT AVBL
POHNPEI WSO    CLOUDY    81  77  89 CALM      29.80S
KOSRAE AP      NOT AVBL

$$

PMZ181-291100-
REPUBLIC OF THE MARSHALL ISLANDS-

CITY           SKY/WX    TMP DP  RH WIND       PRES   REMARKS
KWAJALEIN AP   NOT AVBL
MAJURO AP      NOT AVBL
MAJURO WSO     PTCLDY    82  75  78 CALM      29.80S

$$



USA.gov is the U.S. government's official web portal to all federal, state and local government web resources and services.